SCP
0 0 0 0 0 0 0 0 0 0 0 0 -0 -0 -0 -0 0 0 0 0 0 0 0 0 0 0 0 0 0 0 0 0
0 0 0 0 0 0 0 0 0 0 0 0 0 0 -0 -0 -0 0 0 0 0 0 0 0 0 0 0 0 0 0 0 0
0 0 0 0 0 0 0 0 0 -0 -0 -0 0 0 0 0 -0 -0 -0 0 0 0 0 0 0 0 0 0 0 0 0 0
0 0 0 0 0 0 0 -0 -0 -0 -0 -0 -0 0 0 0 0 0 0 0 0 0 0 0 0 0 0 0 0 0 0 0
0 0 0 0 0 0 0 0 0 -0 -0 0 0 0 0 0 0 0 0 0 0 0 0 0 0 0 0 0 0 0 0 0
0 0 0 0 0 0 0 0 0 0 0 0 0 0 0 0 0 0 0 0 0 0 0 0 0 0 0 0 0 0 0 0
0 0 0 0 0 0 -0 0 0 0 0 0 0 0 0 0 0 0 0 0 0 0 0 0 0 0 0 0 0 0 0 0
0 0 0 0 0 0 0 0 0 0 0 0 0 0 0 0 0 0 0 0 0 0 0 0 0 0 0 0 0 0 0 0
0 0 0 0 0 0 -0 -0 0 0 0 0 0 0 0 0 0 0 0 0 0 0 0 0 0 0 0 0 0 0 0 0
0 0 0 0 0 0 0 0 -0 -0 0 0 0 0 0 0 0 0 0 0 0 0 0 0 0 0 0 0 0 0 0 0
0 0 0 0 0 0 0 0 0 0 0 0 0 0 0 0 0 0 0 0 0 0 0 0 0 0 0 0 0 0 0 0
-0 -0 -0 0 0 0 0 0 0 0 -0 -0 0 0 0 0 0 0 0 0 0 0 0 0 0 0 0 0 0 0 0 0
0 0 0 0 0 0 0 0 0 0 0 -0 -0 0 0 0 0 0 0 0 0 0 0 0 0 0 0 0 0 0 0 0
0 -0 -0 0 0 0 0 0 0 0 0 0 0 0 0 0 0 0 0 0 0 0 0 0 0 0 0 0 0 0 0 0
-0 -0 -0 -0 -0 0 0 0 0 0 0 0 0 0 0 0 0 0 0 0 0 0 0 0 0 0 0 0 0 0 0 0
0 0 -0 -0 -0 -0 -0 -0 0 0 0 0 0 0 0 0 0 0 0 0 0 0 0 0 0 0 0 0 0 0 0 0
0 0 0 0 -0 -0 -0 -0 -0 -0 0 0 0 0 0 0 0 0 0 0 0 0 0 0 0 0 0 0 0 0 0 0
0 0 0 0 0 0 0 -0 -0 -0 -0 0 0 0 0 0 0 0 0 0 0 0 0 0 0 0 0 0 0 0 0 0
0 0 0 0 0 0 0 0 0 0 0 0 0 0 0 0 0 0 0 0 0 0 0 0 0 0 0 0 0 0 0 0
0 0 0 0 0 0 0 0 0 0 0 0 0 0 0 0 0 0 0 0 0 0 0 0 0 0 0 0 0 0 0 0
Wind_Speed_500mb
15 9 10 13 16 19 22 25 29 31 31 31 32 32 32 28 24 22 19 13 7 10 10 19 16 13 17 16 19 22 21 22
21 16 13 13 14 15 17 23 27 28 29 29 27 28 30 32 32 30 26 20 15 8 8 15 15 13 15 19 19 17 17 17
21 22 17 11 13 18 25 23 22 23 23 22 24 28 29 31 31 32 32 29 24 20 14 12 14 12 15 16 20 23 22 22
34 24 11 9 12 15 19 25 29 29 26 24 24 25 28 30 29 29 30 31 29 24 19 16 14 16 14 16 16 20 22 25
23 13 5 10 14 19 21 25 30 32 34 31 26 25 26 29 30 30 29 27 29 29 26 22 18 15 15 16 18 19 20 21
10 5 13 14 19 22 24 26 27 28 32 38 37 33 27 25 28 29 26 26 26 26 27 26 24 20 15 14 17 19 20 21
13 14 16 20 23 26 29 31 32 30 30 33 36 38 36 30 23 23 24 24 25 26 27 27 26 23 21 18 15 18 21 22
10 11 16 21 25 29 33 36 37 36 34 35 36 36 38 37 33 24 22 23 24 23 24 25 27 26 25 22 19 15 19 22
23 22 24 25 26 29 32 36 38 38 38 36 36 35 34 36 36 33 27 24 23 23 23 24 24 26 27 26 23 19 15 21
37 36 34 32 33 34 33 33 36 37 38 39 38 37 35 31 34 38 35 27 26 23 24 24 24 23 24 28 29 25 21 17
47 42 39 37 36 35 34 34 34 36 38 42 43 42 42 38 35 36 44 35 30 27 25 25 25 24 22 23 27 31 26 20
40 39 40 39 38 36 34 39 40 43 45 46 49 50 45 44 39 37 42 44 38 33 26 26 26 25 24 22 23 27 29 25
49 50 48 45 47 48 49 51 52 54 56 58 55 55 53 50 44 39 38 49 51 45 37 28 26 27 25 23 22 22 26 27
61 61 60 59 57 60 60 60 61 59 59 60 60 58 56 55 52 47 42 41 49 53 50 40 30 28 28 25 23 21 21 24
72 75 75 70 66 64 64 63 64 66 64 61 62 61 59 58 54 52 51 48 45 49 55 51 40 34 31 30 27 25 23 22
60 61 62 62 63 62 65 67 68 69 70 69 66 64 64 62 61 56 52 50 52 51 48 52 51 43 37 34 31 28 26 26
48 49 49 48 50 52 55 60 66 71 72 72 72 69 66 65 68 63 60 57 54 49 53 52 52 48 46 42 36 33 30 28
47 47 48 49 51 51 54 56 59 64 68 70 71 71 70 66 65 70 67 61 59 56 47 52 55 50 52 49 42 39 38 34
45 45 48 51 51 50 52 54 54 55 57 61 65 66 67 66 64 63 67 69 67 57 56 49 52 55 56 54 48 50 46 40
43 46 50 55 58 58 55 53 51 51 53 53 54 55 56 57 60 62 63 66 68 65 61 55 55 47 52 51 59 57 51 45
Wind_Direction_500mb
244 270 333 347 0 7 14 16 15 12 12 13 13 14 16 19 24 24 21 2 327 298 275 250 252 241 236 242 253 247 255 255
239 266 320 340 349 2 4 2 355 352 353 354 358 359 359 357 360 4 9 8 2 328 278 268 252 252 252 239 243 262 261 261
229 262 282 328 348 343 344 337 334 339 343 346 344 347 349 348 350 350 352 357 355 349 337 297 280 259 248 248 240 243 253 258
246 234 250 306 318 329 328 330 331 333 332 331 335 342 345 346 345 345 344 344 347 346 337 326 302 276 258 244 243 241 242 241
207 220 271 319 321 323 327 324 323 321 319 313 310 319 333 342 346 346 345 344 339 340 344 341 328 303 277 258 244 243 244 239
204 271 323 329 331 329 327 322 319 319 314 305 301 298 304 320 336 340 343 348 350 348 342 341 341 335 319 284 260 249 247 248
308 323 320 325 334 335 332 331 331 323 317 312 299 293 289 289 306 323 329 334 339 345 349 351 346 345 336 323 290 258 248 241
338 333 326 332 336 335 335 336 335 331 325 315 311 299 289 282 281 294 309 320 327 335 340 346 354 353 347 340 324 294 256 246
335 325 318 316 316 317 320 322 325 327 327 323 316 311 301 285 274 268 281 300 308 318 327 336 343 352 357 352 337 316 275 246
329 318 312 305 302 303 305 305 308 312 315 319 319 315 312 304 279 261 256 271 289 297 308 320 328 337 345 351 348 335 312 261
312 311 304 298 297 296 300 301 300 302 305 308 311 311 311 309 300 279 250 248 265 281 296 306 315 322 328 337 341 345 340 307
304 303 299 298 298 296 296 297 299 298 296 295 297 299 299 300 301 293 263 250 251 261 274 292 302 311 317 324 332 337 342 338
299 302 306 307 305 303 301 298 298 297 296 294 291 289 290 289 287 287 279 260 253 254 258 268 284 295 305 314 322 328 333 336
297 298 300 305 309 307 305 305 302 298 294 292 290 287 285 285 282 277 273 271 260 254 255 257 263 277 287 299 310 317 320 326
300 297 294 297 300 302 303 302 300 298 295 292 289 287 284 282 281 277 271 266 265 260 255 255 256 261 269 280 293 301 309 313
311 308 304 300 297 299 301 301 298 294 293 292 290 288 284 281 280 277 271 267 265 262 261 254 252 254 260 266 274 285 298 306
328 326 326 321 312 308 305 300 297 294 291 289 287 284 281 280 277 272 272 269 262 264 263 257 251 244 247 255 263 269 280 291
336 337 333 330 327 322 311 305 299 295 293 291 288 285 283 279 276 274 268 266 261 257 255 254 257 243 240 245 250 255 262 273
342 344 339 337 338 329 321 314 308 302 296 292 291 290 286 282 278 273 271 269 264 254 252 242 246 247 246 240 242 244 249 260
353 351 350 349 347 342 336 328 320 312 307 305 299 294 292 288 283 277 271 267 264 263 254 241 233 245 247 242 239 241 244 249
Wind_Speed_850mb
15 9 10 13 16 19 22 25 29 31 31 31 32 32 32 28 24 22 19 13 7 10 10 19 16 13 17 16 19 22 21 22
21 16 13 13 14 15 17 23 27 28 29 29 27 28 30 32 32 30 26 20 15 8 8 15 15 13 15 19 19 17 17 17
21 22 17 11 13 18 25 23 22 23 23 22 24 28 29 31 31 32 32 29 24 20 14 12 14 12 15 16 20 23 22 22
34 24 11 9 12 15 19 25 29 29 26 24 24 25 28 30 29 29 30 31 29 24 19 16 14 16 14 16 16 20 22 25
23 13 5 10 14 19 21 25 30 32 34 31 26 25 26 29 30 30 29 27 29 29 26 22 18 15 15 16 18 19 20 21
10 5 13 14 19 22 24 26 27 28 32 38 37 33 27 25 28 29 26 26 26 26 27 26 24 20 15 14 17 19 20 21
13 14 16 20 23 26 29 31 32 30 30 33 36 38 36 30 23 23 24 24 25 26 27 27 26 23 21 18 15 18 21 22
10 11 16 21 25 29 33 36 37 36 34 35 36 36 38 37 33 24 22 23 24 23 24 25 27 26 25 22 19 15 19 22
23 22 24 25 26 29 32 36 38 38 38 36 36 35 34 36 36 33 27 24 23 23 23 24 24 26 27 26 23 19 15 21
37 36 34 32 33 34 33 33 36 37 38 39 38 37 35 31 34 38 35 27 26 23 24 24 24 23 24 28 29 25 21 17
47 42 39 37 36 35 34 34 34 36 38 42 43 42 42 38 35 36 44 35 30 27 25 25 25 24 22 23 27 31 26 20
40 39 40 39 38 36 34 39 40 43 45 46 49 50 45 44 39 37 42 44 38 33 26 26 26 25 24 22 23 27 29 25
49 50 48 45 47 48 49 51 52 54 56 58 55 55 53 50 44 39 38 49 51 45 37 28 26 27 25 23 22 22 26 27
61 61 60 59 57 60 60 60 61 59 59 60 60 58 56 55 52 47 42 41 49 53 50 40 30 28 28 25 23 21 21 24
72 75 75 70 66 64 64 63 64 66 64 61 62 61 59 58 54 52 51 48 45 49 55 51 40 34 31 30 27 25 23 22
60 61 62 62 63 62 65 67 68 69 70 69 66 64 64 62 61 56 52 50 52 51 48 52 51 43 37 34 31 28 26 26
48 49 49 48 50 52 55 60 66 71 72 72 72 69 66 65 68 63 60 57 54 49 53 52 52 48 46 42 36 33 30 28
47 47 48 49 51 51 54 56 59 64 68 70 71 71 70 66 65 70 67 61 59 56 47 52 55 50 52 49 42 39 38 34
45 45 48 51 51 50 52 54 54 55 57 61 65 66 67 66 64 63 67 69 67 57 56 49 52 55 56 54 48 50 46 40
43 46 50 55 58 58 55 53 51 51 53 53 54 55 56 57 60 62 63 66 68 65 61 55 55 47 52 51 59 57 51 45
Wind_Direction_850mb
244 270 333 347 0 7 14 16 15 12 12 13 13 14 16 19 24 24 21 2 327 298 275 250 252 241 236 242 253 247 255 255
239 266 320 340 349 2 4 2 355 352 353 354 358 359 359 357 360 4 9 8 2 328 278 268 252 252 252 239 243 262 261 261
229 262 282 328 348 343 344 337 334 339 343 346 344 347 349 348 350 350 352 357 355 349 337 297 280 259 248 248 240 243 253 258
246 234 250 306 318 329 328 330 331 333 332 331 335 342 345 346 345 345 344 344 347 346 337 326 302 276 258 244 243 241 242 241
207 220 271 319 321 323 327 324 323 321 319 313 310 319 333 342 346 346 345 344 339 340 344 341 328 303 277 258 244 243 244 239
204 271 323 329 331 329 327 322 319 319 314 305 301 298 304 320 336 340 343 348 350 348 342 341 341 335 319 284 260 249 247 248
308 323 320 325 334 335 332 331 331 323 317 312 299 293 289 289 306 323 329 334 339 345 349 351 346 345 336 323 290 258 248 241
338 333 326 332 336 335 335 336 335 331 325 315 311 299 289 282 281 294 309 320 327 335 340 346 354 353 347 340 324 294 256 246
335 325 318 316 316 317 320 322 325 327 327 323 316 311 301 285 274 268 281 300 308 318 327 336 343 352 357 352 337 316 275 246
329 318 312 305 302 303 305 305 308 312 315 319 319 315 312 304 279 261 256 271 289 297 308 320 328 337 345 351 348 335 312 261
312 311 304 298 297 296 300 301 300 302 305 308 311 311 311 309 300 279 250 248 265 281 296 306 315 322 328 337 341 345 340 307
304 303 299 298 298 296 296 297 299 298 296 295 297 299 299 300 301 293 263 250 251 261 274 292 302 311 317 324 332 337 342 338
299 302 306 307 305 303 301 298 298 297 296 294 291 289 290 289 287 287 279 260 253 254 258 268 284 295 305 314 322 328 333 336
297 298 300 305 309 307 305 305 302 298 294 292 290 287 285 285 282 277 273 271 260 254 255 257 263 277 287 299 310 317 320 326
300 297 294 297 300 302 303 302 300 298 295 292 289 287 284 282 281 277 271 266 265 260 255 255 256 261 269 280 293 301 309 313
311 308 304 300 297 299 301 301 298 294 293 292 290 288 284 281 280 277 271 267 265 262 261 254 252 254 260 266 274 285 298 306
328 326 326 321 312 308 305 300 297 294 291 289 287 284 281 280 277 272 272 269 262 264 263 257 251 244 247 255 263 269 280 291
336 337 333 330 327 322 311 305 299 295 293 291 288 285 283 279 276 274 268 266 261 257 255 254 257 243 240 245 250 255 262 273
342 344 339 337 338 329 321 314 308 302 296 292 291 290 286 282 278 273 271 269 264 254 252 242 246 247 246 240 242 244 249 260
353 351 350 349 347 342 336 328 320 312 307 305 299 294 292 288 283 277 271 267 264 263 254 241 233 245 247 242 239 241 244 249